CW4553 Weather Reports


time (UTC)temp
F
wind
direction
speed
knots
gust
knots
rain 1hr
in
rain 24hr
in
rain mn
in
humidity
%
barometer
mb
20260509005758 81 63 7.0 11.3 0.00 0.00 0.00 60 1017.3
20260509005256 82 105 9.6 13.9 0.00 0.00 0.00 57 1017.4
20260509004755 82 66 7.0 8.7 0.00 0.00 0.00 59 1017.2
20260509004252 82 75 5.2 7.8 0.00 0.00 0.00 56 1017.3
20260509003751 82 93 5.2 8.7 0.00 0.00 0.00 58 1017.4
20260509003248 82 132 5.2 8.7 0.00 0.00 0.00 57 1017.4
20260509002745 82 123 3.5 8.7 0.00 0.00 0.00 57 1017.3
20260509002242 83 145 7.8 11.3 0.00 0.00 0.00 57 1017.5
20260509001740 83 190 3.5 7.0 0.00 0.00 0.00 58 1017.4
20260509001235 83 96 5.2 9.6 0.00 0.00 0.00 55 1017.4
20260509000734 82 158 6.1 8.7 0.00 0.00 0.00 56 1017.5
20260509000231 84 67 6.1 9.6 0.00 0.00 0.00 56 1017.6
20260508235727 82 198 4.3 13.0 0.00 0.00 0.00 58 1017.8
20260508235224 82 161 7.0 11.3 0.00 0.00 0.00 59 1017.6
20260508234722 82 147 5.2 7.0 0.00 0.00 0.00 57 1017.8
20260508234218 81 90 3.5 5.2 0.00 0.00 0.00 60 1017.6
20260508233717 81 120 4.3 8.7 0.00 0.00 0.00 60 1017.9
20260508233215 82 157 7.0 9.6 0.00 0.00 0.00 56 1017.9
20260508232712 82 235 0.9 6.1 0.00 0.00 0.00 60 1018.0
20260508232208 82 136 6.1 8.7 0.00 0.00 0.00 59 1017.9
20260508231707 81 85 5.2 7.0 0.00 0.00 0.00 61 1017.9
20260508231203 81 71 2.6 7.8 0.00 0.00 0.00 62 1017.9
20260508230700 81 52 5.2 7.8 0.00 0.00 0.00 59 1018.0
20260508230156 81 113 5.2 7.8 0.00 0.00 0.00 62 1018.1
20260508225654 81 122 3.5 5.2 0.00 0.00 0.00 63 1018.3
20260508225150 81 46 5.2 8.7 0.00 0.00 0.00 63 1018.4
20260508224648 81 107 5.2 7.0 0.00 0.00 0.00 61 1018.3
20260508224145 82 131 4.3 8.7 0.00 0.00 0.00 60 1018.4
20260508223643 82 93 3.5 7.8 0.00 0.00 0.00 60 1018.5
20260508223140 82 102 3.5 6.1 0.00 0.00 0.00 64 1018.5
20260508222637 81 61 4.3 7.0 0.00 0.00 0.00 64 1018.6
20260508222134 81 125 7.0 7.8 0.00 0.00 0.00 64 1018.6
20260508221630 82 55 6.1 8.7 0.00 0.00 0.00 62 1018.8
20260508221126 82 91 5.2 7.8 0.00 0.00 0.00 59 1018.8
20260508220623 81 125 3.5 7.0 0.00 0.00 0.00 63 1018.9
20260508220120 80 150 1.7 7.0 0.00 0.00 0.00 63 1018.9
20260508215616 80 163 3.5 6.1 0.00 0.00 0.00 63 1019.0
20260508215113 79 121 3.5 6.1 0.00 0.00 0.00 63 1019.2
20260508214610 79 94 6.1 9.6 0.00 0.00 0.00 62 1018.8
20260508214107 79 126 3.5 7.0 0.00 0.00 0.00 62 1018.7
20260508213604 79 70 6.1 7.8 0.00 0.00 0.00 64 1019.0
20260508213100 78 93 5.2 7.8 0.00 0.00 0.00 67 1019.1
20260508212557 78 128 3.5 7.8 0.00 0.00 0.00 68 1019.3
20260508212053 78 79 6.1 11.3 0.00 0.00 0.00 68 1019.2
20260508211548 78 79 4.3 9.6 0.00 0.00 0.00 70 1019.4
20260508211045 78 125 3.5 7.8 0.00 0.00 0.00 68 1019.4
20260508210542 78 56 5.2 12.2 0.00 0.00 0.00 67 1019.7
20260508210039 78 145 6.1 7.8 0.00 0.00 0.00 67 1019.6
20260508205536 79 92 6.1 8.7 0.00 0.00 0.00 67 1019.8
20260508205032 78 171 4.3 5.2 0.00 0.00 0.00 68 1019.9
20260508204529 78 136 3.5 9.6 0.00 0.00 0.00 67 1019.9
20260508204025 79 131 5.2 8.7 0.00 0.00 0.00 65 1020.0
20260508203521 79 93 5.2 7.0 0.00 0.00 0.00 66 1019.9
20260508203017 79 73 5.2 6.1 0.00 0.00 0.00 66 1019.9
20260508202514 78 30 2.6 5.2 0.00 0.00 0.00 66 1019.9
20260508202011 79 92 7.8 8.7 0.00 0.00 0.00 64 1019.9
20260508201508 79 59 2.6 5.2 0.00 0.00 0.00 66 1019.9
20260508201004 80 38 6.1 7.0 0.00 0.00 0.00 64 1020.0
20260508200502 78 106 3.5 5.2 0.00 0.00 0.00 66 1019.9
20260508195956 78 78 5.2 7.8 0.00 0.00 0.00 67 1020.3
20260508195454 77 56 2.6 7.0 0.00 0.00 0.00 68 1020.1
20260508194950 77 43 2.6 7.0 0.00 0.00 0.00 68 1020.0
20260508194448 77 43 4.3 8.7 0.00 0.00 0.00 68 1020.2
20260508193944 77 38 3.5 6.1 0.00 0.00 0.00 69 1020.0
20260508193441 77 77 3.5 7.0 0.00 0.00 0.00 69 1020.1
20260508192938 77 102 5.2 6.1 0.00 0.00 0.00 69 1020.1
20260508192434 77 53 3.5 6.1 0.00 0.00 0.00 69 1020.1
20260508191931 77 30 2.6 3.5 0.00 0.00 0.00 68 1020.1
20260508191429 77 253 1.7 5.2 0.00 0.00 0.00 68 1019.8
20260508190925 76 52 1.7 2.6 0.00 0.00 0.00 69 1020.0
20260508190423 76 250 1.7 3.5 0.00 0.00 0.00 70 1019.8
20260508185918 75 27 1.7 3.5 0.00 0.00 0.00 70 1019.8
20260508185416 75 11 5.2 7.0 0.00 0.00 0.00 70 1019.6
20260508184913 75 24 2.6 3.5 0.00 0.00 0.00 70 1019.7
20260508184411 75 30 3.5 7.0 0.00 0.00 0.00 70 1019.7
20260508183907 75 16 5.2 6.1 0.00 0.00 0.00 69 1019.8
20260508183404 75 49 5.2 7.8 0.00 0.00 0.00 69 1019.5
20260508182859 75 54 3.5 7.0 0.00 0.00 0.00 70 1019.5
20260508182357 74 47 3.5 7.0 0.00 0.00 0.00 71 1019.8
20260508181852 74 19 4.3 7.0 0.00 0.00 0.00 71 1019.7
20260508181349 74 67 7.0 11.3 0.00 0.00 0.00 71 1019.7
20260508180846 74 23 3.5 6.1 0.00 0.00 0.00 73 1019.7
20260508180343 73 252 0.9 3.5 0.00 0.00 0.00 74 1019.8
20260508175839 73 274 1.7 5.2 0.00 0.00 0.00 74 1019.8
20260508175335 73 45 1.7 5.2 0.00 0.00 0.00 74 1019.8
20260508174834 73 61 2.6 3.5 0.00 0.00 0.00 74 1019.8
20260508174331 73 79 1.7 3.5 0.00 0.00 0.00 75 1019.8
20260508173827 72 346 2.6 2.6 0.00 0.00 0.00 75 1019.6
20260508173325 72 301 0.9 3.5 0.00 0.00 0.00 77 1019.9
20260508172820 72 14 4.3 6.1 0.00 0.00 0.00 77 1019.7
20260508172317 71 337 2.6 5.2 0.00 0.00 0.00 77 1019.8
20260508171814 71 317 3.5 6.1 0.00 0.00 0.00 78 1019.6
20260508171310 71 30 3.5 5.2 0.00 0.00 0.00 79 1019.5
20260508170807 71 27 2.6 5.2 0.00 0.00 0.00 79 1019.5
20260508170305 71 334 2.6 3.5 0.00 0.00 0.00 79 1019.5
20260508165801 71 48 4.3 5.2 0.00 0.00 0.00 80 1019.4
20260508165259 71 359 2.6 3.5 0.00 0.00 0.00 81 1019.3
20260508164754 70 12 2.6 3.5 0.00 0.00 0.00 81 1019.2
20260508164252 70 1 3.5 3.5 0.00 0.00 0.00 82 1019.2
20260508163750 70 315 2.6 5.2 0.00 0.00 0.00 82 1019.3
20260508163247 70 351 3.5 3.5 0.00 0.00 0.00 83 1019.2
20260508162743 70 8 3.5 6.1 0.00 0.00 0.00 83 1019.1
20260508162240 70 26 3.5 3.5 0.00 0.00 0.00 83 1019.1
20260508161737 70 42 2.6 5.2 0.00 0.00 0.00 83 1019.0
20260508161234 70 21 2.6 5.2 0.00 0.00 0.00 83 1019.1
20260508160732 70 22 3.5 3.5 0.00 0.00 0.00 82 1018.9
20260508160230 70 16 3.5 3.5 0.00 0.00 0.00 82 1019.0
20260508155726 70 350 2.6 3.5 0.00 0.00 0.00 81 1019.0
20260508155223 70 335 2.6 3.5 0.00 0.00 0.00 81 1018.9
20260508154720 70 28 1.7 2.6 0.00 0.00 0.00 81 1018.8
20260508154217 70 13 2.6 3.5 0.00 0.00 0.00 81 1018.8
20260508153714 70 304 2.6 5.2 0.00 0.00 0.00 82 1018.8
20260508153211 70 266 1.7 3.5 0.00 0.00 0.00 82 1018.6
20260508152708 70 5 2.6 2.6 0.00 0.00 0.00 82 1018.6
20260508152203 70 12 2.6 3.5 0.00 0.00 0.00 82 1018.6
20260508151700 70 30 2.6 3.5 0.00 0.00 0.00 82 1018.4
20260508151157 70 25 2.6 2.6 0.00 0.00 0.00 82 1018.2
20260508150654 70 308 1.7 3.5 0.00 0.00 0.00 81 1018.3
20260508150150 70 8 3.5 3.5 0.00 0.00 0.00 81 1018.4
20260508145646 70 355 1.7 3.5 0.00 0.00 0.00 82 1018.3
20260508145142 70 33 3.5 5.2 0.00 0.00 0.00 82 1018.2
20260508144640 70 23 1.7 6.1 0.00 0.00 0.00 82 1018.2
20260508144138 70 29 2.6 3.5 0.00 0.00 0.00 82 1018.2
20260508143635 70 13 4.3 6.1 0.00 0.00 0.00 82 1018.1
20260508143132 70 356 3.5 6.1 0.00 0.00 0.00 82 1018.0
20260508142628 70 16 3.5 5.2 0.00 0.00 0.00 82 1018.0
20260508142125 70 14 1.7 3.5 0.00 0.00 0.00 83 1017.9
20260508141621 70 14 1.7 5.2 0.00 0.00 0.00 82 1018.0
20260508141119 70 340 3.5 5.2 0.00 0.00 0.00 82 1017.9
20260508140616 70 336 3.5 3.5 0.00 0.00 0.00 83 1018.0
20260508140113 70 7 3.5 5.2 0.00 0.00 0.00 83 1017.9
20260508135608 70 19 3.5 5.2 0.00 0.00 0.00 83 1017.9
20260508135105 69 12 4.3 5.2 0.00 0.00 0.00 83 1018.0
20260508134602 69 25 3.5 6.1 0.00 0.00 0.00 83 1018.2
20260508134059 70 37 2.6 5.2 0.00 0.00 0.00 83 1018.0
20260508133555 70 24 2.6 3.5 0.00 0.00 0.00 82 1018.1
20260508133053 70 31 3.5 5.2 0.00 0.00 0.00 82 1018.0
20260508132550 70 16 3.5 5.2 0.00 0.00 0.00 82 1018.2
20260508132047 70 2 2.6 5.2 0.00 0.00 0.00 83 1018.1
20260508131542 70 336 2.6 5.2 0.00 0.00 0.00 83 1018.2
20260508131039 70 349 2.6 6.1 0.00 0.00 0.00 84 1018.2
20260508130537 70 336 4.3 6.1 0.00 0.00 0.00 85 1018.4
20260508130033 69 352 3.5 6.1 0.00 0.00 0.00 86 1018.3
20260508125528 69 8 2.6 6.1 0.00 0.00 0.00 86 1018.3
20260508125027 69 12 3.5 7.0 0.00 0.00 0.00 87 1018.4
20260508124524 69 23 3.5 5.2 0.00 0.00 0.00 87 1018.6
20260508124021 70 327 2.6 5.2 0.00 0.00 0.00 87 1018.7
20260508123520 70 4 4.3 7.0 0.00 0.00 0.00 87 1018.6
20260508123016 70 48 5.2 7.0 0.00 0.00 0.00 87 1018.5
20260508122513 70 252 2.6 6.1 0.00 0.00 0.00 87 1018.4
20260508122010 70 38 3.5 5.2 0.00 0.00 0.00 87 1018.6
20260508121508 70 18 3.5 3.5 0.00 0.00 0.00 87 1018.7
20260508121006 70 354 3.5 3.5 0.00 0.00 0.00 87 1018.8
20260508120503 70 7 3.5 3.5 0.00 0.00 0.00 87 1018.8
20260508120001 70 1 4.3 6.1 0.00 0.00 0.00 87 1019.0
20260508115458 70 13 2.6 6.1 0.00 0.00 0.00 87 1019.0
20260508114955 70 22 3.5 5.2 0.00 0.00 0.00 87 1019.1
20260508114452 70 337 3.5 6.1 0.00 0.00 0.00 87 1019.1
20260508113948 70 22 3.5 5.2 0.00 0.00 0.00 87 1019.2
20260508113446 70 306 2.6 3.5 0.00 0.00 0.00 87 1019.3
20260508112943 70 329 1.7 2.6 0.00 0.00 0.00 87 1019.1
20260508112439 70 12 1.7 2.6 0.00 0.00 0.00 87 1019.2
20260508111936 69 26 1.7 2.6 0.00 0.00 0.00 87 1019.5
20260508111433 69 11 2.6 3.5 0.00 0.00 0.00 87 1019.6
20260508110930 70 55 2.6 3.5 0.00 0.00 0.00 86 1019.4
20260508110428 70 326 2.6 2.6 0.00 0.00 0.00 86 1019.2
20260508105927 70 290 1.7 2.6 0.00 0.00 0.00 86 1019.4
20260508105424 70 319 1.7 2.6 0.00 0.00 0.00 86 1019.3
20260508104921 70 303 2.6 3.5 0.00 0.00 0.00 86 1019.5
20260508104419 70 300 1.7 2.6 0.00 0.00 0.00 86 1019.4
20260508103915 70 328 1.7 2.6 0.00 0.00 0.00 86 1019.5
20260508103413 70 320 1.7 2.6 0.00 0.00 0.00 86 1019.7
20260508102909 70 343 0.9 2.6 0.00 0.00 0.00 86 1019.7
20260508102408 70 284 1.7 3.5 0.00 0.00 0.00 86 1019.5
20260508101905 70 300 2.6 2.6 0.00 0.00 0.00 86 1019.8
20260508101402 70 285 1.7 1.7 0.00 0.00 0.00 86 1019.7
20260508100859 70 306 0.9 1.7 0.00 0.00 0.00 86 1019.8
20260508100358 70 274 1.7 2.6 0.00 0.00 0.00 86 1019.9
20260508095853 70 288 0.9 1.7 0.00 0.03 0.03 86 1019.9
20260508095351 70 275 0.9 2.6 0.00 0.03 0.03 87 1019.8
20260508094848 70 308 0.9 2.6 0.00 0.03 0.03 87 1020.1
20260508094345 70 347 1.7 3.5 0.00 0.03 0.03 86 1020.0
20260508093842 70 328 2.6 3.5 0.00 0.03 0.03 86 1020.1
20260508093339 70 263 1.7 1.7 0.00 0.03 0.03 86 1020.0
20260508092837 70 315 1.7 2.6 0.00 0.03 0.03 86 1020.1
20260508092334 70 322 2.6 2.6 0.00 0.03 0.03 86 1020.0
20260508091833 70 273 1.7 2.6 0.00 0.03 0.03 86 1020.2
20260508091328 70 341 1.7 3.5 0.00 0.03 0.03 86 1020.3
20260508090826 70 295 1.7 2.6 0.00 0.03 0.03 86 1020.3
20260508090325 70 290 1.7 2.6 0.00 0.03 0.03 86 1020.4
20260508085820 70 334 1.7 2.6 0.00 0.03 0.03 86 1020.4
20260508085317 70 336 1.7 2.6 0.00 0.03 0.03 86 1020.5
20260508084814 70 268 1.7 3.5 0.00 0.03 0.03 86 1020.3
20260508084311 70 299 1.7 1.7 0.00 0.03 0.03 86 1020.3
20260508083808 70 295 1.7 3.5 0.00 0.03 0.03 86 1020.5
20260508083306 70 355 1.7 2.6 0.00 0.03 0.03 86 1020.3
20260508082805 70 315 1.7 2.6 0.00 0.03 0.03 86 1020.5
20260508082306 70 287 2.6 3.5 0.00 0.03 0.03 86 1020.5
20260508081800 69 347 1.7 2.6 0.00 0.03 0.03 85 1020.6
20260508081257 70 277 1.7 3.5 0.00 0.03 0.03 85 1020.5
20260508080754 70 336 1.7 3.5 0.00 0.03 0.03 85 1020.3
20260508080252 70 325 0.9 1.7 0.00 0.03 0.03 85 1020.4
20260508075748 69 283 0.9 2.6 0.00 0.03 0.03 85 1020.3
20260508075245 70 280 1.7 1.7 0.00 0.03 0.03 85 1020.4
20260508074743 70 290 1.7 3.5 0.00 0.03 0.03 84 1020.4
20260508074240 70 300 1.7 2.6 0.00 0.03 0.03 84 1020.6
20260508073737 70 3 1.7 2.6 0.00 0.03 0.03 84 1020.4
20260508073235 70 350 2.6 3.5 0.00 0.03 0.03 84 1020.2
20260508072731 70 358 2.6 3.5 0.00 0.03 0.03 84 1020.4
20260508072228 70 334 1.7 2.6 0.00 0.03 0.03 84 1020.3
20260508071725 70 315 1.7 2.6 0.00 0.03 0.03 83 1020.0
20260508071224 70 352 1.7 3.5 0.00 0.03 0.03 83 1019.9
20260508070720 70 280 1.7 2.6 0.00 0.03 0.03 83 1019.8
20260508070219 71 359 1.7 2.6 0.00 0.03 0.03 83 1020.1
20260508065716 71 340 1.7 2.6 0.00 0.03 0.03 83 1019.9
20260508065214 70 15 1.7 2.6 0.00 0.03 0.03 83 1020.0
20260508064711 71 10 1.7 2.6 0.00 0.03 0.03 82 1019.9
20260508064209 71 314 3.5 3.5 0.00 0.03 0.03 82 1020.0
20260508063707 71 351 2.6 3.5 0.00 0.03 0.03 82 1019.9
20260508063204 71 279 0.9 3.5 0.00 0.03 0.03 82 1019.9
20260508062701 71 18 2.6 3.5 0.00 0.03 0.03 82 1019.8
20260508062158 71 37 1.7 1.7 0.00 0.03 0.03 82 1019.7
20260508061655 71 18 1.7 2.6 0.00 0.03 0.03 82 1019.7
20260508061153 71 299 0.9 1.7 0.00 0.03 0.03 81 1019.8
20260508060649 71 18 1.7 2.6 0.00 0.03 0.03 81 1019.8
20260508060147 72 356 1.7 2.6 0.00 0.03 0.03 80 1019.6
20260508055642 72 19 1.7 2.6 0.00 0.03 0.03 80 1019.5
20260508055139 72 322 1.7 2.6 0.00 0.03 0.03 79 1019.4
20260508054635 72 278 1.7 1.7 0.00 0.03 0.03 79 1019.5
20260508054133 72 8 3.5 3.5 0.00 0.03 0.03 79 1019.3
20260508053630 72 9 1.7 2.6 0.00 0.03 0.03 78 1019.2
20260508053128 73 29 1.7 2.6 0.00 0.03 0.03 77 1019.2
20260508052625 73 317 1.7 2.6 0.00 0.03 0.03 77 1019.2
20260508052122 73 24 1.7 2.6 0.00 0.03 0.03 76 1019.3
20260508051618 73 41 2.6 2.6 0.00 0.03 0.03 76 1019.1
20260508051113 74 102 0.9 2.6 0.00 0.03 0.03 75 1019.1
20260508050609 74 342 0.9 1.7 0.00 0.03 0.03 75 1019.1
20260508050108 74 259 0.9 3.5 0.00 0.03 0.03 74 1019.0
20260508045603 74 355 1.7 2.6 0.00 0.03 0.03 74 1019.0
20260508045101 75 59 3.5 5.2 0.00 0.03 0.03 73 1019.0
20260508044558 75 75 4.3 6.1 0.00 0.03 0.03 72 1018.8
20260508044054 75 32 2.6 7.0 0.00 0.03 0.03 72 1018.7
20260508043551 75 54 5.2 5.2 0.00 0.03 0.03 71 1018.6
20260508043049 76 351 1.7 7.8 0.00 0.03 0.03 70 1018.6
20260508042545 77 57 3.5 3.5 0.00 0.03 0.03 69 1018.6
20260508042043 76 85 2.6 5.2 0.00 0.03 0.03 69 1018.5
20260508041538 76 72 3.5 5.2 0.00 0.03 0.03 68 1018.6
20260508041035 77 57 7.0 8.7 0.00 0.03 0.03 67 1018.4
20260508040532 77 111 3.5 7.8 0.00 0.03 0.03 67 1018.2
20260508040030 77 97 7.8 7.8 0.00 0.03 0.03 66 1018.2
20260508035526 77 77 7.0 8.7 0.00 0.03 0.03 66 1018.2
20260508035024 77 118 5.2 8.7 0.00 0.03 0.03 66 1018.3
20260508034521 77 94 5.2 8.7 0.00 0.03 0.03 67 1018.3
20260508034018 77 63 5.2 7.0 0.00 0.03 0.03 66 1018.2
20260508033515 77 59 7.8 9.6 0.00 0.03 0.03 67 1018.3
20260508033013 77 58 7.0 9.6 0.00 0.03 0.03 69 1018.2
20260508032509 77 25 5.2 7.8 0.00 0.03 0.03 69 1018.2
20260508032007 77 68 4.3 7.8 0.00 0.03 0.03 69 1018.3
20260508031504 77 79 4.3 7.8 0.00 0.03 0.03 69 1018.1
20260508030959 77 105 3.5 5.2 0.00 0.03 0.03 69 1018.0
20260508030456 77 81 3.5 5.2 0.00 0.03 0.03 68 1018.1
20260508025954 77 44 3.5 7.0 0.00 0.03 0.03 68 1018.0
20260508025450 77 104 4.3 7.0 0.00 0.03 0.03 68 1018.1
20260508024948 77 63 4.3 6.1 0.00 0.03 0.03 68 1018.1
20260508024443 77 72 5.2 7.0 0.00 0.03 0.03 67 1017.9
20260508023940 77 79 2.6 6.1 0.00 0.03 0.03 67 1018.0
20260508023437 77 77 3.5 7.0 0.00 0.03 0.03 66 1017.9
20260508022935 77 81 3.5 5.2 0.00 0.03 0.03 66 1018.0
20260508022430 77 55 3.5 6.1 0.00 0.03 0.03 66 1018.0
20260508021927 77 62 3.5 7.0 0.00 0.03 0.03 66 1018.0
20260508021423 77 351 3.5 5.2 0.00 0.03 0.03 67 1018.0
20260508020919 77 105 5.2 6.1 0.00 0.03 0.03 66 1017.9
20260508020417 77 51 5.2 7.0 0.00 0.03 0.03 66 1018.0
20260508015914 77 47 3.5 7.0 0.00 0.03 0.03 66 1018.0
20260508015412 77 115 1.7 5.2 0.00 0.03 0.03 67 1017.9
20260508014908 78 6 3.5 7.0 0.00 0.03 0.03 68 1018.0
20260508014405 78 76 3.5 7.0 0.00 0.03 0.03 68 1018.3
20260508013902 78 66 4.3 6.1 0.00 0.03 0.03 68 1018.1
20260508013357 78 82 6.1 7.8 0.00 0.03 0.03 68 1018.0
20260508012855 78 66 5.2 6.1 0.00 0.03 0.03 68 1018.2
20260508012351 77 68 1.7 5.2 0.00 0.03 0.03 69 1018.2
20260508011849 77 150 1.7 5.2 0.00 0.03 0.03 70 1018.2
20260508011347 77 36 5.2 7.0 0.00 0.03 0.03 70 1018.2
20260508010844 77 33 2.6 7.0 0.00 0.03 0.03 70 1018.1
20260508010341 78 74 5.2 6.1 0.00 0.03 0.03 70 1018.3